Location: Unspecified
(0.0000°N, 0.0000°E)
Time: 20:32:12
(UTC+00:00)

STARLINK-30198 - Visible Passes

Search period start: 10 November 2025 00:00
Search period end: 20 November 2025 00:00
Orbit: 558 x 560 km, 43.0° (Epoch: 08 November)

Date Brightness Start Highest point End Pass type
(mag) Time Alt. Az. Time Alt. Az. Time Alt. Az.
10 Nov 5.1 19:07:48 10° WNW 19:11:42 37° SW 19:15:37 10° SSE visible
11 Nov 6.1 19:05:26 10° W 19:08:42 22° SW 19:11:58 10° S visible
12 Nov 6.7 19:03:45 10° WSW 19:05:43 13° SW 19:07:42 10° SSW visible
14 Nov 3.6 05:16:28 10° SW 05:20:39 67° NW 05:24:50 10° NE visible
15 Nov 6.4 03:34:29 10° S 03:37:06 17° SE 03:39:50 10° E visible
15 Nov 4.2 05:13:44 10° WSW 05:17:38 37° NW 05:21:33 10° NNE visible
16 Nov 5.6 03:34:19 28° SE 03:34:19 28° SE 03:37:44 10° ENE visible
16 Nov 4.9 05:11:21 10° W 05:14:38 22° NW 05:17:55 10° N visible
17 Nov 6.0 03:33:52 19° ENE 03:33:52 19° ENE 03:35:10 10° ENE visible
17 Nov 5.5 05:09:50 10° WNW 05:11:39 13° NW 05:13:38 10° NNW visible
